This is the latest recevied weather packets stored in our database for station/object SP1BMW-13. If no packets are shown the sender has not sent any weather packets the latest 1 day(s).
| Time | Temp. | Humidity | Pressure | Rain* | Wind** | Luminosity | Snow |
|---|---|---|---|---|---|---|---|
| 1778028348 | 10° C | 93% | 1007 hPa | 0 mm | 1.34 m/s, 56° | 0 W/m² | - |
| 1778028288 | 10° C | 93% | 1007.2 hPa | 0 mm | 0.45 m/s, 39° | 0 W/m² | - |
| 1778028228 | 10° C | 93% | 1007.1 hPa | 0 mm | 0.45 m/s, 34° | 0 W/m² | - |
| 1778028168 | 10° C | 93% | 1007.3 hPa | 0 mm | 0.45 m/s, 45° | 0 W/m² | - |
| 1778028111 | 10° C | 93% | 1007 hPa | 0 mm | 0 m/s | 0 W/m² | - |
| 1778028048 | 10° C | 93% | 1006.9 hPa | 0 mm | 0.89 m/s, 32° | 0 W/m² | - |
| 1778027988 | 10° C | 93% | 1006.8 hPa | 0 mm | 0.89 m/s, 50° | 0 W/m² | - |
| 1778027928 | 10° C | 93% | 1007.1 hPa | 0 mm | 0.45 m/s, 48° | 0 W/m² | - |
| 1778027868 | 10° C | 93% | 1007.1 hPa | 0 mm | 1.34 m/s, 34° | 0 W/m² | - |
| 1778027808 | 10° C | 93% | 1007 hPa | 0 mm | 0.89 m/s, 48° | 0 W/m² | - |
| 1778027748 | 10° C | 93% | 1007 hPa | 0 mm | 0.45 m/s, 9° | 0 W/m² | - |
| 1778027691 | 10° C | 93% | 1007.2 hPa | 0 mm | 0.89 m/s, 311° | 0 W/m² | - |
| 1778027628 | 10° C | 93% | 1007.1 hPa | 0 mm | 0.45 m/s, 30° | 0 W/m² | - |
| 1778027568 | 10° C | 93% | 1007.2 hPa | 0 mm | 0.89 m/s, 336° | 0 W/m² | - |
| 1778027508 | 10° C | 93% | 1007.1 hPa | 0 mm | 0.45 m/s, 30° | 0 W/m² | - |
| 1778027448 | 10° C | 93% | 1007 hPa | 0 mm | 0.45 m/s, 39° | 0 W/m² | - |
| 1778027388 | 10° C | 93% | 1007.2 hPa | 0 mm | 0 m/s | 0 W/m² | - |
| 1778027328 | 10° C | 93% | 1007 hPa | 0 mm | 0 m/s | 0 W/m² | - |
| 1778027268 | 10° C | 93% | 1007.1 hPa | 0 mm | 0.89 m/s, 316° | 0 W/m² | - |
| 1778027208 | 10° C | 93% | 1007 hPa | 0 mm | 0.89 m/s, 23° | 0 W/m² | - |
| 1778027148 | 10° C | 93% | 1007 hPa | 0 mm | 0 m/s | 0 W/m² | - |
| 1778027088 | 10° C | 93% | 1007.2 hPa | 0 mm | 0 m/s | 0 W/m² | - |
| 1778027028 | 10° C | 93% | 1007 hPa | 0 mm | 0.45 m/s, 38° | 0 W/m² | - |
| 1778026968 | 10° C | 93% | 1007 hPa | 0 mm | 0.45 m/s, 46° | 0 W/m² | - |
| 1778026908 | 10° C | 93% | 1007.2 hPa | 0 mm | 0 m/s | 0 W/m² | - |
* Rain latest hour (hover to see other rain measurements)
** Current wind speed in m/s (hover to see current wind gust speed)